| time (UTC) | temp C | wind direction | speed KPH | gust KPH | rain 1hr cm | rain 24hr cm | rain mn cm | humidity % | barometer mb |
| 20260506050906 | 8 | 21 | 8.0 | 11.3 | 0.00 | 0.00 | 0.00 | 78 | 1013.1 |
| 20260506044506 | 8 | 74 | 6.4 | 9.7 | 0.00 | 0.00 | 0.00 | 78 | 1012.9 |
| 20260506043606 | 8 | 40 | 8.0 | 9.7 | 0.00 | 0.00 | 0.00 | 78 | 1012.8 |
| 20260506042706 | 8 | 24 | 8.0 | 9.7 | 0.00 | 0.00 | 0.00 | 78 | 1012.9 |
| 20260506041806 | 8 | 348 | 6.4 | 11.3 | 0.00 | 0.00 | 0.00 | 77 | 1012.9 |
| 20260506040927 | 8 | 22 | 4.8 | 6.4 | 0.00 | 0.00 | 0.00 | 77 | 1012.9 |
| 20260506040006 | 8 | 10 | 8.0 | 12.9 | 0.00 | 0.00 | 0.00 | 76 | 1012.9 |
| 20260506035406 | 8 | 15 | 8.0 | 12.9 | 0.00 | 0.00 | 0.00 | 77 | 1013.0 |
| 20260506034506 | 8 | 37 | 8.0 | 12.9 | 0.00 | 0.00 | 0.00 | 77 | 1012.9 |
| 20260506033606 | 8 | 54 | 8.0 | 9.7 | 0.00 | 0.00 | 0.00 | 77 | 1012.8 |
| 20260506032727 | 8 | 40 | 4.8 | 11.3 | 0.00 | 0.00 | 0.00 | 78 | 1012.9 |
| 20260506031806 | 9 | 43 | 8.0 | 14.5 | 0.00 | 0.00 | 0.00 | 79 | 1012.8 |
| 20260506030906 | 9 | 20 | 4.8 | 8.0 | 0.00 | 0.00 | 0.00 | 79 | 1012.9 |
| 20260506030027 | 9 | 15 | 4.8 | 8.0 | 0.00 | 0.00 | 0.00 | 79 | 1013.0 |
| 20260506025406 | 9 | 48 | 4.8 | 6.4 | 0.00 | 0.00 | 0.00 | 78 | 1013.0 |
| 20260506024506 | 9 | 36 | 4.8 | 9.7 | 0.00 | 0.00 | 0.00 | 78 | 1012.8 |
| 20260506023606 | 9 | 40 | 4.8 | 11.3 | 0.00 | 0.00 | 0.00 | 77 | 1012.9 |
| 20260506022706 | 9 | 30 | 8.0 | 11.3 | 0.00 | 0.00 | 0.00 | 77 | 1012.9 |
| 20260506021806 | 9 | 56 | 8.0 | 12.9 | 0.00 | 0.00 | 0.00 | 78 | 1012.9 |
| 20260506020906 | 10 | 55 | 8.0 | 9.7 | 0.00 | 0.00 | 0.00 | 78 | 1013.0 |
| 20260506020027 | 10 | 52 | 6.4 | 9.7 | 0.00 | 0.00 | 0.00 | 79 | 1013.1 |
| 20260506015406 | 10 | 58 | 6.4 | 11.3 | 0.00 | 0.00 | 0.00 | 79 | 1013.0 |
| 20260506014527 | 10 | 53 | 8.0 | 11.3 | 0.00 | 0.00 | 0.00 | 79 | 1013.1 |
| 20260506013627 | 10 | 57 | 8.0 | 11.3 | 0.00 | 0.00 | 0.00 | 78 | 1013.0 |
| 20260506012706 | 10 | 35 | 6.4 | 9.7 | 0.00 | 0.00 | 0.00 | 77 | 1013.0 |
| 20260506011827 | 10 | 28 | 6.4 | 8.0 | 0.00 | 0.00 | 0.00 | 77 | 1013.1 |
| 20260506010906 | 10 | 45 | 4.8 | 9.7 | 0.00 | 0.00 | 0.00 | 76 | 1013.0 |
| 20260506010006 | 10 | 33 | 6.4 | 9.7 | 0.00 | 0.00 | 0.00 | 76 | 1013.1 |
| 20260506005427 | 10 | 23 | 6.4 | 11.3 | 0.00 | 0.00 | 0.00 | 76 | 1013.1 |
| 20260506004527 | 10 | 360 | 6.4 | 11.3 | 0.00 | 0.00 | 0.00 | 76 | 1013.2 |
| 20260506003606 | 10 | 38 | 8.0 | 9.7 | 0.00 | 0.00 | 0.00 | 75 | 1013.1 |
| 20260506002706 | 10 | 61 | 6.4 | 11.3 | 0.00 | 0.00 | 0.00 | 75 | 1013.2 |
| 20260506001806 | 10 | 17 | 6.4 | 12.9 | 0.00 | 0.00 | 0.00 | 74 | 1013.2 |
| 20260506000906 | 10 | 49 | 9.7 | 12.9 | 0.00 | 0.00 | 0.00 | 73 | 1013.1 |
| 20260506000006 | 11 | 49 | 9.7 | 14.5 | 0.00 | 0.00 | 0.00 | 73 | 1013.3 |
| 20260505235427 | 11 | 39 | 9.7 | 14.5 | 0.00 | 0.00 | 0.00 | 71 | 1013.3 |
| 20260505234506 | 11 | 23 | 9.7 | 14.5 | 0.00 | 0.00 | 0.00 | 71 | 1013.3 |
| 20260505233627 | 11 | 7 | 6.4 | 11.3 | 0.00 | 0.00 | 0.00 | 70 | 1013.2 |
| 20260505232706 | 11 | 57 | 8.0 | 11.3 | 0.00 | 0.00 | 0.00 | 70 | 1013.3 |
| 20260505231806 | 11 | 60 | 8.0 | 12.9 | 0.00 | 0.00 | 0.00 | 70 | 1013.1 |
| 20260505230906 | 11 | 40 | 9.7 | 12.9 | 0.00 | 0.00 | 0.00 | 70 | 1013.3 |
| 20260505230006 | 11 | 20 | 8.0 | 12.9 | 0.00 | 0.00 | 0.00 | 70 | 1013.4 |
| 20260505225406 | 11 | 19 | 8.0 | 12.9 | 0.00 | 0.00 | 0.00 | 70 | 1013.3 |
| 20260505224506 | 11 | 46 | 8.0 | 11.3 | 0.00 | 0.00 | 0.00 | 70 | 1013.3 |
| 20260505223606 | 12 | 25 | 12.9 | 17.7 | 0.00 | 0.00 | 0.00 | 68 | 1013.2 |
| 20260505222706 | 12 | 51 | 8.0 | 11.3 | 0.00 | 0.00 | 0.00 | 69 | 1013.3 |
| 20260505221806 | 12 | 57 | 9.7 | 16.1 | 0.00 | 0.00 | 0.00 | 68 | 1013.1 |
| 20260505220906 | 12 | 39 | 9.7 | 16.1 | 0.00 | 0.00 | 0.00 | 68 | 1013.0 |
| 20260505220027 | 12 | 22 | 11.3 | 17.7 | 0.00 | 0.00 | 0.00 | 68 | 1013.0 |
| 20260505215406 | 12 | 30 | 12.9 | 17.7 | 0.00 | 0.00 | 0.00 | 67 | 1013.0 |
| 20260505214506 | 12 | 44 | 9.7 | 16.1 | 0.00 | 0.00 | 0.00 | 67 | 1012.9 |
| 20260505213606 | 12 | 35 | 8.0 | 11.3 | 0.00 | 0.00 | 0.00 | 67 | 1012.8 |
| 20260505212706 | 12 | 357 | 9.7 | 20.9 | 0.00 | 0.00 | 0.00 | 67 | 1012.8 |
| 20260505211806 | 12 | 18 | 9.7 | 20.9 | 0.00 | 0.00 | 0.00 | 68 | 1012.8 |
| 20260505210927 | 12 | 36 | 8.0 | 12.9 | 0.00 | 0.00 | 0.00 | 68 | 1012.7 |
| 20260505210027 | 12 | 50 | 8.0 | 11.3 | 0.00 | 0.00 | 0.00 | 69 | 1012.7 |
| 20260505205406 | 13 | 50 | 9.7 | 17.7 | 0.00 | 0.00 | 0.00 | 69 | 1012.7 |
| 20260505204506 | 13 | 51 | 8.0 | 14.5 | 0.00 | 0.00 | 0.00 | 69 | 1012.7 |
| 20260505203606 | 13 | 31 | 6.4 | 8.0 | 0.00 | 0.00 | 0.00 | 67 | 1012.7 |
| 20260505202706 | 13 | 31 | 8.0 | 12.9 | 0.00 | 0.00 | 0.00 | 67 | 1012.5 |
| 20260505201827 | 13 | 43 | 8.0 | 9.7 | 0.00 | 0.00 | 0.00 | 67 | 1012.5 |
| 20260505200906 | 13 | 31 | 8.0 | 11.3 | 0.00 | 0.00 | 0.00 | 66 | 1012.4 |
| 20260505200006 | 14 | 59 | 9.7 | 17.7 | 0.00 | 0.00 | 0.00 | 65 | 1012.3 |
| 20260505195427 | 14 | 20 | 8.0 | 9.7 | 0.00 | 0.00 | 0.00 | 64 | 1012.3 |
| 20260505194506 | 14 | 31 | 6.4 | 8.0 | 0.00 | 0.00 | 0.00 | 63 | 1012.0 |
| 20260505193627 | 14 | 28 | 4.8 | 8.0 | 0.00 | 0.00 | 0.00 | 63 | 1011.9 |
| 20260505192727 | 14 | 55 | 1.6 | 4.8 | 0.00 | 0.00 | 0.00 | 63 | 1012.0 |
| 20260505191806 | 14 | 50 | 1.6 | 4.8 | 0.00 | 0.00 | 0.00 | 62 | 1012.0 |
| 20260505190906 | 15 | 22 | 3.2 | 6.4 | 0.00 | 0.00 | 0.00 | 62 | 1011.9 |
| 20260505190006 | 15 | 25 | 3.2 | 6.4 | 0.00 | 0.00 | 0.00 | 62 | 1011.7 |
| 20260505185427 | 15 | 32 | 1.6 | 4.8 | 0.00 | 0.00 | 0.00 | 61 | 1011.8 |
| 20260505184506 | 15 | 42 | 4.8 | 6.4 | 0.00 | 0.00 | 0.00 | 61 | 1011.8 |
| 20260505183606 | 15 | 24 | 4.8 | 8.0 | 0.00 | 0.00 | 0.00 | 60 | 1011.7 |
| 20260505182706 | 15 | 30 | 4.8 | 8.0 | 0.00 | 0.00 | 0.00 | 60 | 1011.6 |
| 20260505181806 | 15 | 42 | 6.4 | 9.7 | 0.00 | 0.00 | 0.00 | 59 | 1011.7 |
| 20260505180906 | 15 | 8 | 6.4 | 9.7 | 0.00 | 0.00 | 0.00 | 58 | 1011.6 |
| 20260505180006 | 15 | 50 | 6.4 | 9.7 | 0.00 | 0.00 | 0.00 | 58 | 1011.6 |
| 20260505175427 | 15 | 37 | 8.0 | 12.9 | 0.00 | 0.00 | 0.00 | 57 | 1011.6 |
| 20260505174506 | 15 | 48 | 8.0 | 17.7 | 0.00 | 0.00 | 0.00 | 57 | 1011.7 |
| 20260505173606 | 16 | 37 | 8.0 | 17.7 | 0.00 | 0.00 | 0.00 | 57 | 1011.7 |
| 20260505172706 | 16 | 20 | 9.7 | 12.9 | 0.00 | 0.00 | 0.00 | 56 | 1011.7 |
| 20260505171806 | 16 | 55 | 8.0 | 12.9 | 0.00 | 0.00 | 0.00 | 54 | 1011.6 |
| 20260505170927 | 16 | 37 | 6.4 | 11.3 | 0.00 | 0.00 | 0.00 | 56 | 1011.7 |
| 20260505170027 | 16 | 31 | 6.4 | 12.9 | 0.00 | 0.00 | 0.00 | 56 | 1011.7 |
| 20260505165406 | 16 | 51 | 8.0 | 12.9 | 0.00 | 0.00 | 0.00 | 57 | 1011.7 |
| 20260505164506 | 16 | 27 | 8.0 | 11.3 | 0.00 | 0.00 | 0.00 | 56 | 1011.7 |
| 20260505163606 | 16 | 68 | 6.4 | 9.7 | 0.00 | 0.00 | 0.00 | 57 | 1011.8 |
| 20260505162706 | 15 | 27 | 6.4 | 9.7 | 0.00 | 0.00 | 0.00 | 57 | 1011.9 |
| 20260505161806 | 15 | 16 | 4.8 | 8.0 | 0.00 | 0.00 | 0.00 | 60 | 1011.8 |
| 20260505160906 | 15 | 360 | 4.8 | 8.0 | 0.00 | 0.00 | 0.00 | 60 | 1011.9 |
| 20260505152727 | 15 | 11 | 8.0 | 12.9 | 0.00 | 0.00 | 0.00 | 59 | 1011.9 |
| 20260505151805 | 16 | 91 | 8.0 | 12.9 | 0.00 | 0.00 | 0.00 | 56 | 1012.0 |
| 20260505150905 | 16 | 15 | 6.4 | 9.7 | 0.00 | 0.00 | 0.00 | 53 | 1012.0 |
| 20260505124505 | 16 | 41 | 8.0 | 11.3 | 0.00 | 0.00 | 0.00 | 53 | 1012.5 |
| 20260505123626 | 16 | 62 | 4.8 | 9.7 | 0.00 | 0.00 | 0.00 | 54 | 1012.6 |
| 20260505122706 | 16 | 51 | 6.4 | 9.7 | 0.00 | 0.00 | 0.00 | 52 | 1012.5 |
| 20260505121827 | 16 | 24 | 8.0 | 11.3 | 0.00 | 0.00 | 0.00 | 52 | 1012.5 |
| 20260505120906 | 17 | 23 | 6.4 | 12.9 | 0.00 | 0.00 | 0.00 | 53 | 1012.4 |
| 20260505120006 | 17 | 34 | 6.4 | 11.3 | 0.00 | 0.00 | 0.00 | 55 | 1012.5 |
| 20260505115427 | 16 | 358 | 4.8 | 8.0 | 0.00 | 0.00 | 0.00 | 60 | 1012.5 |
| 20260505114527 | 15 | 14 | 4.8 | 6.4 | 0.00 | 0.00 | 0.00 | 61 | 1012.6 |
| 20260505113605 | 15 | 40 | 6.4 | 12.9 | 0.00 | 0.00 | 0.00 | 59 | 1012.7 |
| 20260505112705 | 15 | 50 | 8.0 | 17.7 | 0.00 | 0.00 | 0.00 | 61 | 1012.7 |
| 20260505111806 | 15 | 44 | 6.4 | 9.7 | 0.00 | 0.00 | 0.00 | 65 | 1012.8 |
| 20260505110927 | 14 | 52 | 6.4 | 9.7 | 0.00 | 0.00 | 0.00 | 65 | 1013.0 |
| 20260505101805 | 13 | 349 | 4.8 | 9.7 | 0.00 | 0.00 | 0.00 | 70 | 1013.2 |
| 20260505100905 | 13 | 3 | 8.0 | 11.3 | 0.00 | 0.00 | 0.00 | 70 | 1013.1 |
| 20260505100006 | 13 | 35 | 8.0 | 12.9 | 0.00 | 0.00 | 0.00 | 71 | 1013.2 |
| 20260505095405 | 13 | 38 | 8.0 | 12.9 | 0.00 | 0.00 | 0.00 | 71 | 1013.3 |
| 20260505094505 | 13 | 68 | 6.4 | 12.9 | 0.00 | 0.00 | 0.00 | 73 | 1013.3 |
| 20260505093605 | 13 | 15 | 8.0 | 11.3 | 0.00 | 0.00 | 0.00 | 73 | 1013.3 |
| 20260505092705 | 13 | 43 | 6.4 | 8.0 | 0.00 | 0.00 | 0.00 | 74 | 1013.3 |
| 20260505091805 | 12 | 360 | 6.4 | 8.0 | 0.00 | 0.00 | 0.00 | 74 | 1013.4 |
| 20260505090906 | 12 | 45 | 6.4 | 9.7 | 0.00 | 0.00 | 0.00 | 75 | 1013.3 |
| 20260505090005 | 12 | 35 | 8.0 | 11.3 | 0.00 | 0.00 | 0.00 | 75 | 1013.4 |
| 20260505085427 | 12 | 21 | 8.0 | 11.3 | 0.00 | 0.00 | 0.00 | 74 | 1013.4 |
| 20260505084526 | 12 | 337 | 8.0 | 12.9 | 0.00 | 0.00 | 0.00 | 76 | 1013.5 |
| 20260505083605 | 12 | 29 | 8.0 | 12.9 | 0.00 | 0.00 | 0.00 | 79 | 1013.5 |
| 20260505082705 | 12 | 2 | 9.7 | 12.9 | 0.00 | 0.00 | 0.00 | 80 | 1013.6 |
| 20260505081827 | 12 | 4 | 6.4 | 12.9 | 0.00 | 0.00 | 0.00 | 81 | 1013.4 |
| 20260505080905 | 12 | 320 | 6.4 | 11.3 | 0.00 | 0.00 | 0.00 | 82 | 1013.6 |
| 20260505080005 | 12 | 76 | 6.4 | 11.3 | 0.00 | 0.00 | 0.00 | 82 | 1013.6 |
| 20260505075405 | 12 | 51 | 6.4 | 11.3 | 0.00 | 0.00 | 0.00 | 83 | 1013.5 |
| 20260505074526 | 11 | 34 | 4.8 | 8.0 | 0.00 | 0.00 | 0.00 | 84 | 1013.5 |
| 20260505073626 | 11 | 352 | 3.2 | 6.4 | 0.00 | 0.00 | 0.00 | 84 | 1013.6 |
| 20260505072705 | 11 | 42 | 4.8 | 8.0 | 0.00 | 0.00 | 0.00 | 84 | 1013.6 |
| 20260505071805 | 11 | 32 | 4.8 | 9.7 | 0.00 | 0.00 | 0.00 | 84 | 1013.6 |
| 20260505070905 | 11 | 37 | 6.4 | 8.0 | 0.00 | 0.00 | 0.00 | 84 | 1013.7 |
| 20260505070026 | 11 | 32 | 8.0 | 8.0 | 0.00 | 0.00 | 0.00 | 85 | 1013.7 |
| 20260505065405 | 11 | 42 | 8.0 | 9.7 | 0.00 | 0.00 | 0.00 | 86 | 1013.7 |
| 20260505064505 | 11 | 25 | 4.8 | 8.0 | 0.00 | 0.00 | 0.00 | 87 | 1013.7 |
| 20260505063605 | 11 | 39 | 4.8 | 6.4 | 0.00 | 0.00 | 0.00 | 88 | 1013.6 |
| 20260505062705 | 11 | 53 | 3.2 | 4.8 | 0.00 | 0.00 | 0.00 | 88 | 1013.6 |
| 20260505061805 | 11 | 41 | 1.6 | 4.8 | 0.00 | 0.00 | 0.00 | 88 | 1013.5 |
| 20260505060905 | 11 | 9 | 1.6 | 4.8 | 0.00 | 0.00 | 0.00 | 89 | 1013.5 |
| 20260505060005 | 10 | 46 | 3.2 | 6.4 | 0.00 | 0.00 | 0.00 | 89 | 1013.7 |
| 20260505055405 | 10 | 45 | 0.0 | 3.2 | 0.00 | 0.00 | 0.00 | 89 | 1013.8 |
| 20260505054505 | 10 | 45 | 1.6 | 3.2 | 0.00 | 0.00 | 0.00 | 89 | 1013.6 |
| 20260505053605 | 10 | 32 | 3.2 | 4.8 | 0.00 | 0.00 | 0.00 | 89 | 1013.7 |
| 20260505052726 | 10 | 50 | 1.6 | 4.8 | 0.00 | 0.00 | 0.00 | 89 | 1013.7 |